Cork, Ireland

10:01 PM IST on October 17, 2017 (GMT +0100)
Cork

Weather History for EICK - December, 2013

Change the Weather History Date:

Saturday, December 7, 2013

  Actual Average Record
Temperature  
Mean Temperature 44 °F -  
Max Temperature 48 °F 47 °F 55 °F (2016)
Min Temperature 39 °F 38 °F 28 °F (2010)
Degree Days  
Heating Degree Days 22    
Moisture  
Dew Point 44 °F    
Average Humidity 95    
Maximum Humidity 100    
Minimum Humidity 87    
Precipitation  
Precipitation 0.00 in 0.18 in - ()
Sea Level Pressure  
Sea Level Pressure 30.28 in    
Wind  
Wind Speed 7 mph ()    
Max Wind Speed 15 mph    
Max Gust Speed -    
Visibility 5.5 miles    
Events Fog , Rain    
Averages and records for this station are not official NWS values.
T = Trace of Precipitation, MM = Missing Value Source: Averaged Metar Reports

Daily Weather History Graph

Daily Weather History Graph

Search for Another Location

Airport or City:

Trip Planner

Search our weather history database for the weather conditions in past years. The results will help you decide how hot, cold, wet, or windy it might be!

Date:

Astronomy

Dec. 07, 2013 Rise Set
Actual Time 8:26 AM GMT 4:23 PM GMT
Civil Twilight 7:46 AM GMT 5:03 PM GMT
Nautical Twilight 7:03 AM GMT 5:47 PM GMT
Astronomical Twilight 6:22 AM GMT 6:27 PM GMT
Moon 11:39 AM GMT (12/7) 10:17 PM GMT (12/7)
Length of Visible Light 9h 17m
Length of Day
7h 57m
Waxing Crescent, 27% of the Moon is Illuminated
Dec 7
Waxing Crescent
Dec 9
First Quarter
Dec 17
Full
Dec 25
Last Quarter
Jan 1
New

Hourly Weather History & Observations

Time (GMT) Temp. Windchill Dew Point Humidity Pressure Visibility Wind Dir Wind Speed Gust Speed Precip Events Conditions
12:00 AM 44 °F - 42 °F 90% 30.42 in 16 mi SW 8.9 mph - -   Mostly Cloudy
12:00 AM 44.6 °F 40.2 °F 42.8 °F 93% 30.39 in 6.2 mi SW 8.1 mph - N/A   Mostly Cloudy
12:30 AM 42.8 °F 38.6 °F 41.0 °F 93% 30.39 in 6.2 mi SW 6.9 mph - N/A   Mostly Cloudy
1:00 AM 42.8 °F 38.6 °F 41.0 °F 93% 30.36 in 6.2 mi WSW 6.9 mph - N/A   Mostly Cloudy
1:30 AM 42.8 °F 38.6 °F 42.8 °F 100% 30.36 in 6.2 mi WSW 6.9 mph - N/A   Mostly Cloudy
2:00 AM 44.6 °F 40.7 °F 42.8 °F 93% 30.36 in 6.2 mi WSW 6.9 mph - N/A   Mostly Cloudy
2:30 AM 44.6 °F 41.4 °F 42.8 °F 93% 30.36 in 6.2 mi WSW 5.8 mph - N/A Rain Light Rain Showers
3:00 AM 42.8 °F 39.3 °F 42.8 °F 100% 30.36 in 6.2 mi WSW 5.8 mph - N/A   Mostly Cloudy
3:30 AM 42.8 °F 40.1 °F 42.8 °F 100% 30.36 in 6.2 mi WSW 4.6 mph - N/A   Mostly Cloudy
4:00 AM 42.8 °F 38.6 °F 41.0 °F 93% 30.33 in 6.2 mi SW 6.9 mph - N/A   Mostly Cloudy
4:30 AM 42.8 °F 38.0 °F 41.0 °F 93% 30.33 in 6.2 mi SW 8.1 mph - N/A   Mostly Cloudy
5:00 AM 41.0 °F 36.4 °F 39.2 °F 93% 30.33 in 6.2 mi SW 6.9 mph - N/A   Mostly Cloudy
5:30 AM 42.8 °F 39.3 °F 42.8 °F 100% 30.33 in 6.2 mi WSW 5.8 mph - N/A   Mostly Cloudy
6:00 AM 42 °F - 42 °F 98% 30.36 in 1 mi West 6.7 mph - -   Mist
6:00 AM 42.8 °F 39.3 °F 41.0 °F 93% 30.33 in 1.0 mi West 5.8 mph - N/A   Mostly Cloudy
6:30 AM 41.0 °F - 41.0 °F 100% 30.33 in 0.4 mi SW 1.2 mph - N/A Fog Fog
7:00 AM 42.8 °F - 41.0 °F 93% 30.33 in 0.4 mi South 2.3 mph - N/A Fog Fog
7:30 AM 42.8 °F 40.1 °F 42.8 °F 100% 30.30 in 0.6 mi SSW 4.6 mph - N/A Fog Fog
8:00 AM 41.0 °F 38.0 °F 41.0 °F 100% 30.30 in 0.3 mi SW 4.6 mph - N/A Fog Fog
8:30 AM 41.0 °F 38.0 °F 39.2 °F 93% 30.30 in 0.2 mi SW 4.6 mph - N/A Fog Fog
9:00 AM 41.0 °F 38.0 °F 41.0 °F 100% 30.30 in 0.2 mi SSW 4.6 mph - N/A Fog Fog
9:30 AM - - - N/A% 30.30 in 0.9 mi SW 6.9 mph - N/A   Scattered Clouds
10:00 AM 42.8 °F 38.6 °F 42.8 °F 100% 30.30 in 1.1 mi SSW 6.9 mph - N/A Rain Light Rain Showers
10:30 AM 44.6 °F 40.2 °F 44.6 °F 100% 30.30 in 6.2 mi SW 8.1 mph - N/A   Scattered Clouds
11:00 AM 44.6 °F 40.2 °F 44.6 °F 100% 30.30 in 6.2 mi SW 8.1 mph - N/A   Scattered Clouds
11:30 AM 44.6 °F 40.7 °F 44.6 °F 100% 30.30 in 6.2 mi SW 6.9 mph - N/A   Mostly Cloudy
12:00 PM 46 °F - 46 °F 97% 30.31 in 22 mi SW 8.9 mph - -   Partly Cloudy
12:00 PM 46.4 °F 42.4 °F 46.4 °F 100% 30.27 in 6.2 mi SW 8.1 mph - N/A   Mostly Cloudy
12:30 PM 48.2 °F - 46.4 °F 93% 30.27 in 6.2 mi SW 11.5 mph - N/A   Scattered Clouds
1:00 PM 48.2 °F - 44.6 °F 87% 30.27 in 6.2 mi SW 12.7 mph - N/A Rain Light Rain Showers
1:30 PM 48.2 °F - 46.4 °F 93% 30.24 in 6.2 mi SW 15.0 mph - N/A   Scattered Clouds
2:00 PM 48.2 °F - 44.6 °F 87% 30.24 in 6.2 mi SW 15.0 mph - N/A   Mostly Cloudy
2:30 PM 46.4 °F 41.1 °F 46.4 °F 100% 30.24 in 6.2 mi SW 11.5 mph - N/A   Mostly Cloudy
3:00 PM 48.2 °F - 46.4 °F 93% 30.24 in 6.2 mi SW 13.8 mph - N/A   Mostly Cloudy
3:30 PM 48.2 °F - 46.4 °F 93% 30.21 in 6.2 mi SW 12.7 mph - N/A   Partly Cloudy
4:00 PM 46.4 °F 41.1 °F 44.6 °F 93% 30.21 in 6.2 mi SW 11.5 mph - N/A   Mostly Cloudy
4:30 PM 46.4 °F 41.1 °F 44.6 °F 93% 30.24 in 6.2 mi SW 11.5 mph - N/A   Mostly Cloudy
5:00 PM 46.4 °F 41.5 °F 44.6 °F 93% 30.24 in 6.2 mi SW 10.4 mph - N/A   Mostly Cloudy
5:30 PM 46.4 °F 41.5 °F 44.6 °F 93% 30.21 in 6.2 mi SW 10.4 mph - N/A   Mostly Cloudy
6:00 PM 46 °F - 45 °F 93% 30.25 in 16 mi SW 11.2 mph - -   Partly Cloudy
6:00 PM 46.4 °F 41.1 °F 44.6 °F 93% 30.21 in 6.2 mi SW 11.5 mph - N/A   Scattered Clouds
6:30 PM 46.4 °F 41.9 °F 44.6 °F 93% 30.21 in 6.2 mi SW 9.2 mph - N/A   Scattered Clouds
7:00 PM 46.4 °F 41.9 °F 44.6 °F 93% 30.21 in 6.2 mi SW 9.2 mph - N/A   Mostly Cloudy
7:30 PM 46.4 °F 41.9 °F 46.4 °F 100% 30.21 in 6.2 mi SW 9.2 mph - N/A   Mostly Cloudy
8:00 PM 46.4 °F 41.1 °F 44.6 °F 93% 30.21 in 6.2 mi SW 11.5 mph - N/A   Mostly Cloudy
8:30 PM 46.4 °F 42.9 °F 46.4 °F 100% 30.21 in 6.2 mi WSW 6.9 mph - N/A   Mostly Cloudy
9:00 PM 46.4 °F 41.9 °F 46.4 °F 100% 30.21 in 6.2 mi SW 9.2 mph - N/A   Mostly Cloudy
9:30 PM 46.4 °F 41.9 °F 46.4 °F 100% 30.21 in 6.2 mi SW 9.2 mph - N/A   Mostly Cloudy
10:00 PM 46.4 °F 41.5 °F 42.8 °F 87% 30.21 in 6.2 mi SW 10.4 mph - N/A   Mostly Cloudy
10:30 PM 46.4 °F 41.1 °F 44.6 °F 93% 30.21 in 6.2 mi SW 11.5 mph - N/A   Mostly Cloudy
11:00 PM 46.4 °F 41.9 °F 44.6 °F 93% 30.21 in 6.2 mi WSW 9.2 mph - N/A   Mostly Cloudy
11:30 PM 46.4 °F 41.5 °F 46.4 °F 100% 30.21 in 6.2 mi SW 10.4 mph - N/A   Mostly Cloudy